Flag for Germany Weather past 2 weeks in Erding, Bavaria, Germany

Now
55 °F

Cool.


Feels Like: 55 °F
Forecast: 44 / 55 °F
Wind: 2 mph from South

Location: Erding Airport

Current Time: Sep 21, 2014 at 7:12:46 AM

Latest Report: Sep 21, 2014 at 6:20 AM


Visibility: 4 mi

Pressure: 30.01 "Hg

Humidity: 100%

Dew point: 55 °F

Location of ErdingLocation

Historic Weather in Erding — Graph

°F

Erding temperature yesterday

Maximum temperature yesterday: 70 °F (at 3:20 PM)
Minimum temperature yesterday: 57 °F (at 1:20 AM)
Average temperature yesterday: 62 °F

Past Weeks' High & Low Weather Summary

 TemperatureHumidityPressure
High79 °F (Sep 8, 4:20 PM)100% (Sep 6, 5:20 AM)30.12 "Hg (Sep 6, 5:20 AM)
Low50 °F (Sep 11, 11:20 PM)48% (Sep 8, 4:20 PM)29.89 "Hg (Sep 6, 5:20 PM)
Average61 °F87%30.01 "Hg
* Reported Sep 6 5:20 AM — Sep 21 5:20 AM, Erding, Weather by CustomWeather, © 2014

Note: Actual official high and low records may vary slightly from our data, if they occured in-between our weather recording intervals... More about our weather records

Advertising

Erding weather history for previous 24 hours

 ConditionsComfort  
Time TempWeatherWind HumidityBarometerVisibility
5:20 AM
Sep 21
59 °FCool.3 mph94%30.01 "Hg4 mi
4:20 AM55 °FCool.2 mph94%30.01 "Hg5 mi
3:20 AM57 °FCool.2 mph94%30.04 "Hg5 mi
2:20 AM57 °FCool.3 mph94%30.04 "Hg4 mi
1:20 AM57 °FCool.3 mph94%30.04 "Hg4 mi
12:20 AM61 °FCool.3 mph88%30.04 "Hg4 mi
11:20 PM
Sep 20
61 °FCool.5 mph94%30.04 "Hg4 mi
10:20 PM63 °FMild.3 mph94%30.01 "Hg4 mi
9:20 PM63 °FMild.3 mph94%30.04 "Hg4 mi
8:20 PM64 °FMild.2 mph88%30.01 "Hg4 mi
7:20 PM66 °FMild.3 mph78%30.01 "Hg4 mi
3:20 PM70 °FMild.9 mph73%29.98 "HgN/A
2:20 PM68 °FMild.6 mph78%30.01 "Hg5 mi
1:20 PM66 °FMild.3 mph88%30.04 "Hg4 mi
12:20 PM63 °FMild.5 mph94%30.04 "Hg4 mi
11:20 AM64 °FMild.6 mph88%30.04 "Hg3 mi
10:20 AM64 °FMild.3 mph94%30.04 "Hg4 mi
9:20 AM63 °FMild.3 mph94%30.01 "Hg4 mi
8:20 AM59 °FCool.2 mph100%30.01 "Hg3 mi
7:20 AM59 °FCool.2 mph100%30.01 "Hg3 mi
Weather by CustomWeather, © 2014

See weather overviewHow to use our weather pages